Regional Weather Roundup
Issued by NWS

Home | Current Version | Previous Version | Text Only | Print | Product List | Glossary On
Versions: 1 2 3 4 5 6 7 8 9 10 11 12 13 14 15 16 17 18 19 20 21 22 23 24 25 26 27 28 29 30 31 32 33 34 35 36 37 38 39 40 41 42 43 44 45 46 47 48 49 50
000
ASUS43 KLSX 061710
RWRMO

WEATHER SUMMARY FOR MISSOURI
NATIONAL WEATHER SERVICE SPRINGFIELD MO
1100 AM CST SAT FEB 06 2016

NOTE: "FAIR" INDICATES FEW OR NO CLOUDS BELOW 12,000 FEET WITH NO
       SIGNIFICANT WEATHER AND/OR OBSTRUCTIONS TO VISIBILITY.
       CURRENT SKY AND/OR WEATHER CONDITIONS ARE NOT AVAILABLE FOR
       CHILLICOTHE AND FARMINGTON.

MOZ001>031-035>038-043-044-053-054-061800-
...NORTHERN AND WESTERN MISSOURI...

CITY           SKY/WX    TMP DP  RH WIND       PRES   REMARKS
KANSAS CTY INT MOSUNNY   41  31  67 W5        30.30S
KANSAS C DTWN  SUNNY     42  30  62 CALM      30.31S
LEE`S SUMMIT   SUNNY     42  31  64 VRB3      30.31R
ST JOSEPH      MOSUNNY   37  30  75 VRB3      30.30F
CHILLICOTHE      N/A     40  30  67 VRB5      30.29F
KIRKSVILLE     SUNNY     43  25  49 W6        30.26S

$$
MOZ066>068-077>081-088>096-101>105-061800-
...SOUTHWEST MISSOURI...

CITY           SKY/WX    TMP DP  RH WIND       PRES   REMARKS
SPRINGFIELD    SUNNY     48  28  46 W7        30.32S
JOPLIN         SUNNY     48  31  51 W7        30.34S

$$
MOZ032>034-039>042-045>050-055>058-069>072-061800-
...CENTRAL MISSOURI...

CITY           SKY/WX    TMP DP  RH WIND       PRES   REMARKS
COLUMBIA       SUNNY     45  25  45 SW6       30.29S
JEFFERSON CITY SUNNY     46  26  45 S6        30.31F
ROLLA          SUNNY     47  27  45 SW10      30.28F
SEDALIA        SUNNY     45  25  45 SW3       30.30S
WHITEMAN AFB   SUNNY     43  26  50 SW3       30.29R
WARRENSBURG    SUNNY     41  27  56 CALM      30.30S
OSAGE BEACH    SUNNY     48  27  43 W9        30.31F

$$
MOZ051-052-059>065-061800-
...EAST CENTRAL MISSOURI...

CITY           SKY/WX    TMP DP  RH WIND       PRES   REMARKS
ST LOUIS INTL  MOSUNNY   48  22  35 W10       30.31F
SPIRIT OF STL  SUNNY     45  24  43 W8        30.31F
ST CHARLES     SUNNY     40  27  59 SW5       30.31F

$$
MOZ072>076-082>087-097>100-106>115-061800-
...SOUTH CENTRAL AND SOUTHEAST MISSOURI...

CITY           SKY/WX    TMP DP  RH WIND       PRES   REMARKS
CAPE GIRARDEAU SUNNY     48  24  39 W9        30.36F
FARMINGTON     SUNNY     52  21  29 SW10      30.32F
POPLAR BLUFF   SUNNY     48  25  40 S6        30.36F
WEST PLAINS    SUNNY     49  18  29 W9        30.35R

$$



USA.gov is the U.S. government's official web portal to all federal, state and local government web resources and services.